weather.gov     
National Weather Service

Terminal Aerodrome Forecast
NWS Homepage
This page is being discontinued on March 12, 2014.
The same data is available at this site. Please update your bookmarks.
Thank you, and we apologize for the inconvenience.
Please send an email to SR-SRH.Webmaster@noaa.gov with any concerns.


Current Version
Previous Version:    01  02  03  04  05  06  07  08  09  10  11  12  13  14  15  16  17  18  19  20  21  22  23  24  25  26  27  
[Printable]
729
FTUS43 KLMK 241400 AAA
TAFLEX
TAF AMD
KLEX 241408Z 2414/2512 22025G36KT P6SM VCSH SCT025 BKN040
      TEMPO 2415/2417 3SM -SHRA BKN025
     FM241900 23019G30KT P6SM VCSH BKN015
     FM250000 24012KT P6SM BKN025
     FM250800 23008KT P6SM SCT035=


U.S. Dept. of Commerce
NOAA National Weather Service
1325 East West Highway
Silver Spring, MD 20910
E-mail: w-nws.webmaster@noaa.gov
Page last modified: May 16, 2007
NATIONAL WEATHER SERVICE: for Safety, for Work, for Fun - FOR LIFE